User: anonymous   Login
Location: Bridgewater Hill Observatory
(43.5992°N, 72.6989°W)
Time: 16:13:04
(UTC-05:00)
Language:

Cosmos 1452 Rocket - Orbit

View from above orbital plane
View from above orbital plane
View from above satellite
View from above satellite

Ground track
Ground track

The orbit data is extracted from the following two-line orbital elements,

1 13992U 83031B   14325.88309985  .00000318  00000-0  11887-3 0  5642
2 13992 074.0540 287.8354 0004163 154.9065 268.8236 14.35819359654128
Epoch (UTC): 21 November 2014 21:11:39
Eccentricity: 0.0004163
inclination: 74.0540°
perigee height: 769 km
apogee height: 775 km
right ascension of ascending node: 287.8354°
argument of perigee: 154.9065°
revolutions per day: 14.35819359
mean anomaly at epoch: 268.8236°
orbit number at epoch: 65412

The dashed part of the orbit path shows where the satellite is in the earth's shadow,  

DLR